Sauk Centre, MN

8:13 AM CST on December 11, 2019 (GMT -0600)
Sauk Centre

Weather History for KD39 - September, 2019

Change the Weather History Date:

Wednesday, September 4, 2019

  Actual Average (KGHW) Record (KGHW)
Temperature  
Mean Temperature 55 °F -  
Max Temperature 68 °F 76 °F 96 °F (2007)
Min Temperature 43 °F 51 °F 34 °F (1956)
Degree Days  
Heating Degree Days 10    
Growing Degree Days 5 (Base 50)    
Moisture  
Dew Point 49 °F    
Average Humidity 78    
Maximum Humidity 99    
Minimum Humidity 55    
Precipitation  
Precipitation 0.00 in - - ()
Sea Level Pressure  
Sea Level Pressure 30.14 in    
Wind  
Wind Speed 4 mph ()    
Max Wind Speed 9 mph    
Max Gust Speed -    
Visibility 10.0 miles    
Events      
Averages and records for this station are not official NWS values.
T = Trace of Precipitation, MM = Missing Value Source: Averaged Metar Reports

Daily Weather History Graph

Daily Weather History Graph

Search for Another Location

Airport or City:

Astronomy

Sep. 04, 2019 Rise Set
Actual Time 6:44 AM CDT 7:52 PM CDT
Civil Twilight 6:13 AM CDT 8:22 PM CDT
Nautical Twilight 5:37 AM CDT 8:59 PM CDT
Astronomical Twilight 4:58 AM CDT 9:37 PM CDT
Moon 1:04 PM CDT (9/4) 11:08 PM CDT (9/4)
Length of Visible Light 14h 09m
Length of Day
13h 08m
Waxing Crescent, 35% of the Moon is Illuminated
Sep 4
Waxing Crescent
Sep 5
First Quarter
Sep 13
Full
Sep 21
Last Quarter
Sep 28
New

Hourly Weather History & Observations

Time (CDT) Temp. Windchill Dew Point Humidity Pressure Visibility Wind Dir Wind Speed Gust Speed Precip Events Conditions
12:15 AM 56.8 °F - 50.5 °F 79% 30.09 in 10.0 mi NNW 9.2 mph - N/A   Overcast
12:20 AM 57.0 °F - 50.4 °F 78% 30.10 in 10.0 mi NNW 9.2 mph - N/A   Overcast
12:35 AM 56.7 °F - 49.8 °F 78% 30.10 in 10.0 mi NNW 6.9 mph - N/A   Overcast
12:58 AM 56.1 °F - 48.9 °F 77% 30.11 in 10.0 mi NNW 6.9 mph - N/A   Overcast
1:16 AM 54.7 °F - 48.6 °F 80% 30.11 in 10.0 mi NNW 5.8 mph - N/A   Scattered Clouds
1:35 AM 54.0 °F - 48.6 °F 82% 30.11 in 10.0 mi NNW 5.8 mph - N/A   Clear
1:36 AM 54.0 °F - 48.6 °F 82% 30.11 in 10.0 mi NNW 5.8 mph - N/A   Clear
1:55 AM 52.2 °F - 48.2 °F 86% 30.11 in 10.0 mi NNW 4.6 mph - N/A   Clear
1:56 AM 52.2 °F - 48.4 °F 87% 30.11 in 10.0 mi NNW 4.6 mph - N/A   Clear
2:15 AM 52.0 °F - 48.2 °F 87% 30.11 in 10.0 mi NNW 4.6 mph - N/A   Clear
2:19 AM 52.3 °F - 48.0 °F 85% 30.11 in 10.0 mi North 4.6 mph - N/A   Clear
2:37 AM 52.3 °F - 47.5 °F 84% 30.11 in 10.0 mi NNW 5.8 mph - N/A   Clear
2:56 AM 50.7 °F - 46.2 °F 85% 30.12 in 10.0 mi NNW 6.9 mph - N/A   Clear
3:15 AM 49.3 °F - 45.9 °F 88% 30.12 in 10.0 mi NNW 4.6 mph - N/A   Clear
3:16 AM 49.3 °F - 46.0 °F 89% 30.12 in 10.0 mi NNW 4.6 mph - N/A   Clear
3:35 AM 48.2 °F - 45.9 °F 92% 30.12 in 10.0 mi NW 3.5 mph - N/A   Clear
3:36 AM 48.2 °F - 46.0 °F 92% 30.12 in 10.0 mi NW 3.5 mph - N/A   Clear
3:58 AM 48.0 °F - 45.5 °F 91% 30.13 in 10.0 mi NNW 3.5 mph - N/A   Clear
4:16 AM 46.9 °F - 45.5 °F 95% 30.14 in 10.0 mi Calm Calm - N/A   Clear
4:36 AM 47.3 °F - 45.5 °F 93% 30.14 in 10.0 mi NNW 4.6 mph - N/A   Clear
4:55 AM 47.1 °F - 45.3 °F 93% 30.14 in 10.0 mi Calm Calm - N/A   Clear
4:56 AM 46.9 °F - 45.1 °F 93% 30.15 in 10.0 mi Calm Calm - N/A   Clear
5:15 AM 44.8 °F - 44.1 °F 97% 30.16 in 10.0 mi Calm Calm - N/A   Clear
5:35 AM 44.8 °F - 44.1 °F 97% 30.16 in 10.0 mi Calm Calm - N/A   Clear
5:39 AM 44.6 °F 43.1 °F 43.7 °F 97% 30.16 in 10.0 mi West 3.5 mph - N/A   Clear
5:57 AM 44.2 °F 42.7 °F 43.7 °F 98% 30.17 in 10.0 mi WNW 3.5 mph - N/A   Clear
6:15 AM 43.7 °F 42.1 °F 43.2 °F 98% 30.18 in 10.0 mi West 3.5 mph - N/A   Clear
6:35 AM 43.7 °F - 43.2 °F 98% 30.18 in 10.0 mi Calm Calm - N/A   Clear
6:36 AM 43.7 °F - 43.2 °F 98% 30.18 in 10.0 mi Calm Calm - N/A   Clear
6:55 AM 43.3 °F - 42.8 °F 98% 30.19 in 10.0 mi Calm Calm - N/A   Clear
6:56 AM 43.5 °F - 42.8 °F 97% 30.19 in 10.0 mi Calm Calm - N/A   Clear
7:18 AM 43.7 °F - 43.2 °F 98% 30.20 in 10.0 mi Calm Calm - N/A   Clear
7:37 AM 44.6 °F - 44.2 °F 99% 30.20 in 10.0 mi Calm Calm - N/A   Clear
8:15 AM 47.8 °F - 46.6 °F 95% 30.21 in 10.0 mi Calm Calm - N/A   Clear
8:16 AM 48.0 °F - 46.8 °F 95% 30.21 in 10.0 mi Calm Calm - N/A   Clear
8:35 AM 50.4 °F - 47.8 °F 91% 30.21 in 10.0 mi Calm Calm - N/A   Clear
8:36 AM 50.4 °F - 47.7 °F 90% 30.21 in 10.0 mi Calm Calm - N/A   Clear
8:55 AM 52.7 °F - 47.8 °F 84% 30.20 in 10.0 mi Calm Calm - N/A   Clear
8:59 AM 52.9 °F - 47.7 °F 82% 30.20 in 10.0 mi Calm Calm - N/A   Clear
9:16 AM 54.0 °F - 47.7 °F 79% 30.21 in 10.0 mi Calm Calm - N/A   Clear
9:36 AM 55.4 °F - 47.1 °F 74% 30.20 in 10.0 mi Calm Calm - N/A   Clear
9:55 AM 55.9 °F - 46.0 °F 69% 30.20 in 10.0 mi Calm Calm - N/A   Clear
9:56 AM 55.9 °F - 45.9 °F 69% 30.20 in 10.0 mi Calm Calm - N/A   Clear
10:15 AM 56.3 °F - 45.0 °F 66% 30.21 in 10.0 mi Calm Calm - N/A   Clear
10:16 AM 56.3 °F - 44.8 °F 65% 30.21 in 10.0 mi Calm Calm - N/A   Clear
10:39 AM 57.6 °F - 46.6 °F 67% 30.20 in 10.0 mi ESE 4.6 mph - N/A   Clear
10:56 AM 58.5 °F - 46.9 °F 66% 30.20 in 10.0 mi Calm Calm - N/A   Clear
11:35 AM 58.8 °F - 46.9 °F 65% 30.20 in 10.0 mi West 3.5 mph - N/A   Clear
11:36 AM 58.8 °F - 46.9 °F 65% 30.20 in 10.0 mi WSW 4.6 mph - N/A   Clear
11:55 AM 59.5 °F - 47.3 °F 64% 30.20 in 10.0 mi WSW 4.6 mph - N/A   Clear
11:59 AM 59.5 °F - 46.6 °F 62% 30.20 in 10.0 mi Calm Calm - N/A   Clear
12:18 PM 60.3 °F - 46.2 °F 60% 30.20 in 10.0 mi South 5.8 mph - N/A   Clear
12:36 PM 61.7 °F - 48.0 °F 61% 30.19 in 10.0 mi SSW 3.5 mph - N/A   Clear
12:56 PM 61.7 °F - 47.5 °F 60% 30.18 in 10.0 mi Calm Calm - N/A   Clear
1:15 PM 62.8 °F - 48.6 °F 60% 30.18 in 10.0 mi South 6.9 mph - N/A   Clear
1:35 PM 63.0 °F - 48.9 °F 60% 30.18 in 10.0 mi South 5.8 mph - N/A   Clear
1:39 PM 63.1 °F - 49.1 °F 60% 30.18 in 10.0 mi Calm Calm - N/A   Clear
1:59 PM 64.2 °F - 49.8 °F 59% 30.17 in 10.0 mi South 4.6 mph - N/A   Clear
2:16 PM 64.4 °F - 50.2 °F 60% 30.17 in 10.0 mi WSW 5.8 mph - N/A   Clear
2:36 PM 65.7 °F - 51.1 °F 59% 30.17 in 10.0 mi Calm Calm - N/A   Clear
2:57 PM 65.8 °F - 49.5 °F 55% 30.16 in 10.0 mi West 4.6 mph - N/A   Clear
3:15 PM 66.2 °F - 50.9 °F 58% 30.15 in 10.0 mi South 6.9 mph - N/A   Clear
3:35 PM 66.7 °F - 51.1 °F 57% 30.13 in 10.0 mi South 5.8 mph - N/A   Clear
3:36 PM 66.9 °F - 51.3 °F 57% 30.13 in 10.0 mi South 4.6 mph - N/A   Clear
3:55 PM 67.1 °F - 52.3 °F 59% 30.13 in 10.0 mi South 5.8 mph - N/A   Clear
4:15 PM 66.2 °F - 52.2 °F 61% 30.12 in 10.0 mi SW 3.5 mph - N/A   Clear
4:16 PM 66.2 °F - 52.3 °F 61% 30.12 in 10.0 mi SW 3.5 mph - N/A   Clear
4:38 PM 66.6 °F - 52.2 °F 60% 30.11 in 10.0 mi South 5.8 mph - N/A   Clear
4:57 PM 67.8 °F - 52.7 °F 58% 30.11 in 10.0 mi SSE 3.5 mph - N/A   Clear
5:16 PM 67.6 °F - 51.3 °F 56% 30.11 in 10.0 mi South 3.5 mph - N/A   Clear
5:35 PM 67.5 °F - 51.8 °F 57% 30.11 in 10.0 mi South 6.9 mph - N/A   Clear
5:36 PM 67.5 °F - 51.6 °F 57% 30.11 in 10.0 mi South 6.9 mph - N/A   Clear
5:55 PM 67.5 °F - 52.2 °F 58% 30.11 in 10.0 mi South 5.8 mph - N/A   Clear
5:59 PM 67.3 °F - 52.7 °F 59% 30.11 in 10.0 mi South 5.8 mph - N/A   Clear
6:18 PM 67.1 °F - 52.3 °F 59% 30.11 in 10.0 mi South 4.6 mph - N/A   Clear
6:35 PM 66.4 °F - 54.5 °F 66% 30.10 in 10.0 mi SSE 5.8 mph - N/A   Clear
6:55 PM 65.5 °F - 54.5 °F 68% 30.11 in 10.0 mi South 5.8 mph - N/A   Clear
6:56 PM 65.3 °F - 54.5 °F 68% 30.11 in 10.0 mi South 5.8 mph - N/A   Clear
7:15 PM 63.3 °F - 54.9 °F 74% 30.10 in 10.0 mi SSE 5.8 mph - N/A   Clear
7:38 PM 60.8 °F - 54.5 °F 80% 30.10 in 10.0 mi SSE 4.6 mph - N/A   Clear
8:16 PM 57.9 °F - 53.8 °F 86% 30.10 in 10.0 mi SE 4.6 mph - N/A   Clear
8:36 PM 57.9 °F - 53.8 °F 86% 30.10 in 10.0 mi SE 4.6 mph - N/A   Clear
8:55 PM 56.3 °F - 52.9 °F 88% 30.10 in 10.0 mi SE 5.8 mph - N/A   Clear
8:59 PM 56.3 °F - 53.2 °F 89% 30.10 in 10.0 mi SE 5.8 mph - N/A   Clear
9:18 PM 55.8 °F - 53.2 °F 91% 30.09 in 10.0 mi SE 4.6 mph - N/A   Clear
9:35 PM 55.4 °F - 53.2 °F 92% 30.09 in 10.0 mi SSE 5.8 mph - N/A   Clear
9:55 PM 55.0 °F - 52.9 °F 92% 30.09 in 10.0 mi SE 5.8 mph - N/A   Clear
9:56 PM 54.9 °F - 52.9 °F 93% 30.08 in 10.0 mi SE 5.8 mph - N/A   Clear
10:15 PM 55.4 °F - 53.1 °F 92% 30.07 in 10.0 mi SSE 6.9 mph - N/A   Clear
10:38 PM 54.5 °F - 52.7 °F 94% 30.06 in 10.0 mi SSE 9.2 mph - N/A   Clear
10:57 PM 55.2 °F - 52.7 °F 91% 30.07 in 10.0 mi SE 5.8 mph - N/A   Clear
11:15 PM 55.8 °F - 53.2 °F 91% 30.06 in 10.0 mi SE 5.8 mph - N/A   Clear
11:35 PM 56.3 °F - 53.6 °F 91% 30.07 in 10.0 mi SE 4.6 mph - N/A   Clear
11:36 PM 56.3 °F - 53.6 °F 91% 30.07 in 10.0 mi SE 4.6 mph - N/A   Clear
11:55 PM 55.9 °F - 53.6 °F 92% 30.07 in 10.0 mi ESE 5.8 mph - N/A   Clear